Location: Bieg
(49.3499°N, 10.3835°E)
Time: 23:04:33
(UTC+00:00)

Cosmos 1850 Rocket - Pass Details

Date: 23 May 2024
Orbit: 753 x 782 km, 74.0° (Epoch: 15 June)

Event Time Altitude Azimuth Distance (km) Brightness Sun altitude
Exits shadow 01:46:17 17° 217° (SW) 1,861 5.3 -12.4°
Maximum altitude 01:50:17 64° 296° (WNW) 856 4.2 -12.0°
Drops below altitude 10° 01:55:31 10° 19° (NNE) 2,321 7.8 -11.5°
Sets 01:57:56 0° 22° (NNE) 3,247 8.9 -11.2°
